Location: Brachbach
(49.1847°N, 9.7240°E)
Time: 04:37:44
(UTC+00:00)

STARS - Pass Details

Date: 20 March 2026
Orbit: 575 x 588 km, 98.2° (Epoch: 15 April)

Event Time Altitude Azimuth Distance (km) Brightness Sun altitude
Rises 01:06:57 0° 19° (NNE) 2,800 ? -36.7°
Reaches altitude 10° 01:09:11 10° 25° (NNE) 1,896 ? -36.5°
Enters shadow 01:09:50 14° 28° (NNE) 1,643 ? -36.4°
